Morgantown, WV

9:50 AM EDT on May 28, 2017 (GMT -0400)
Morgantown Municipal-Hart

Weather History for KMGW - December, 2001

Change the Weather History Date:

Sunday, December 30, 2001

  Actual Average Record
Temperature  
Mean Temperature 16 °F 32 °F  
Max Temperature 19 °F 39 °F 67 °F (1971)
Min Temperature 12 °F 24 °F 3 °F (1983)
Degree Days  
Heating Degree Days 50 33  
Month to date heating degree days 904  
Since 1 July heating degree days 1952  
Cooling Degree Days 0 0  
Month to date cooling degree days 0  
Year to date cooling degree days 814  
Moisture  
Dew Point 6 °F    
Average Humidity 65    
Maximum Humidity 77    
Minimum Humidity 59    
Precipitation  
Precipitation 0.00 in 0.09 in 1.38 in (1990)
Month to date precipitation 2.83  
Year to date precipitation 41.75  
Sea Level Pressure  
Sea Level Pressure 30.16 in    
Wind  
Wind Speed 7 mph (SW)    
Max Wind Speed 13 mph    
Max Gust Speed 21 mph    
Visibility 10 miles    
Events Snow    
T = Trace of Precipitation, MM = Missing Value Source: NWS Daily Summary

Daily Weather History Graph

Daily Weather History Graph

Search for Another Location

Airport or City:

Trip Planner

Search our weather history database for the weather conditions in past years. The results will help you decide how hot, cold, wet, or windy it might be!

Date:

Astronomy

Dec. 30, 2001 Rise Set
Actual Time 7:40 AM EST 5:04 PM EST
Civil Twilight 7:09 AM EST 5:34 PM EST
Nautical Twilight 6:36 AM EST 6:08 PM EST
Astronomical Twilight 6:03 AM EST 6:41 PM EST
Moon 5:24 PM EST (12/30) 7:54 AM EST (12/30)
Length of Visible Light 10h 24m
Length of Day
9h 24m
Full, 100% of the Moon is Illuminated
Dec 30
Full
Jan 5
Last Quarter
Jan 13
New
Jan 21
First Quarter
Jan 28
Full

Hourly Weather History & Observations

Time (EST) Temp. Windchill Dew Point Humidity Pressure Visibility Wind Dir Wind Speed Gust Speed Precip Events Conditions
12:53 AM 17.1 °F 8.7 °F 6.1 °F 62% 30.10 in 10.0 mi Variable 5.8 mph - N/A   Overcast
1:53 AM 16.0 °F 7.4 °F 5.0 °F 62% 30.11 in 10.0 mi Variable 5.8 mph - N/A   Overcast
2:53 AM 16.0 °F 8.8 °F 5.0 °F 62% 30.13 in 10.0 mi Variable 4.6 mph - N/A   Overcast
3:53 AM 15.1 °F 4.2 °F 3.9 °F 61% 30.14 in 10.0 mi WSW 8.1 mph - N/A   Clear
4:53 AM 14.0 °F 6.5 °F 5.0 °F 67% 30.14 in 10.0 mi WSW 4.6 mph - N/A   Mostly Cloudy
5:53 AM 12.9 °F 3.8 °F 3.9 °F 67% 30.16 in 10.0 mi Variable 5.8 mph - N/A   Overcast
6:53 AM 14.0 °F 3.9 °F 5.0 °F 67% 30.17 in 10.0 mi WSW 6.9 mph 15.0 mph N/A   Overcast
7:53 AM 14.0 °F 2.9 °F 6.1 °F 71% 30.19 in 10.0 mi WSW 8.1 mph 17.3 mph N/A   Overcast
8:53 AM 14.0 °F 2.0 °F 6.1 °F 71% 30.20 in 9.0 mi WSW 9.2 mph 20.7 mph 0.00 in Snow Light Snow
9:08 AM 14.0 °F 1.2 °F 3.2 °F 62% 30.14 in 9.0 mi West 10.4 mph 18.4 mph 0.00 in Snow Light Snow
9:53 AM 15.1 °F 4.2 °F 5.0 °F 64% 30.21 in 9.0 mi WSW 8.1 mph 16.1 mph 0.00 in Snow Light Snow
10:53 AM 16.0 °F 3.6 °F 5.0 °F 62% 30.19 in 10.0 mi West 10.4 mph 16.1 mph 0.00 in Snow Light Snow
11:53 AM 16.0 °F 3.6 °F 10.0 °F 77% 30.17 in 7.0 mi SW 10.4 mph 20.7 mph 0.00 in Snow Light Snow
12:33 PM 17.6 °F 6.4 °F 6.8 °F 63% 30.09 in 8.0 mi SW 9.2 mph 16.1 mph 0.00 in Snow Light Snow
12:53 PM 18.0 °F 6.1 °F 8.1 °F 65% 30.15 in 9.0 mi SW 10.4 mph - 0.00 in Snow Light Snow
1:53 PM 19.0 °F 7.5 °F 7.0 °F 59% 30.14 in 9.0 mi West 10.4 mph - 0.00 in   Mostly Cloudy
2:53 PM 19.0 °F 8.2 °F 7.0 °F 59% 30.15 in 10.0 mi WSW 9.2 mph - N/A   Mostly Cloudy
3:05 PM 19.4 °F 7.9 °F 8.6 °F 63% 30.09 in 10.0 mi SW 10.4 mph 16.1 mph N/A   Overcast
3:53 PM 18.0 °F 4.8 °F 7.0 °F 62% 30.16 in 10.0 mi SW 12.7 mph 17.3 mph N/A   Overcast
4:53 PM 18.0 °F 5.4 °F 7.0 °F 62% 30.17 in 10.0 mi SW 11.5 mph - N/A   Mostly Cloudy
5:53 PM 17.1 °F 7.6 °F 7.0 °F 65% 30.17 in 10.0 mi SSW 6.9 mph - N/A   Clear
6:53 PM 15.1 °F 9.4 °F 6.1 °F 68% 30.17 in 10.0 mi SSW 3.5 mph - N/A   Clear
7:53 PM 15.1 °F 7.7 °F 7.0 °F 70% 30.18 in 10.0 mi SSW 4.6 mph - N/A   Clear
8:53 PM 16.0 °F 7.4 °F 7.0 °F 68% 30.19 in 10.0 mi SSW 5.8 mph - N/A   Clear
9:53 PM 15.1 °F 6.4 °F 7.0 °F 70% 30.20 in 10.0 mi SSW 5.8 mph - N/A   Clear
10:53 PM 15.1 °F 6.4 °F 7.0 °F 70% 30.20 in 10.0 mi SSW 5.8 mph - N/A   Clear
11:53 PM 16.0 °F 6.3 °F 7.0 °F 68% 30.19 in 10.0 mi SSW 6.9 mph - N/A   Clear